This is the latest recevied weather packets stored in our database for station/object SQ9SMC-13. If no packets are shown the sender has not sent any weather packets the latest 10 day(s).
| Time | Temp. | Humidity | Pressure | Rain* | Wind** | Luminosity | Snow |
|---|---|---|---|---|---|---|---|
| 1777890903 | 23.33° C | 36% | 1016.3 hPa | 0 mm | - | 444 W/m² | - |
| 1777890003 | 23.89° C | 35% | 1016.5 hPa | 0 mm | - | 431 W/m² | - |
| 1777889703 | 23.89° C | 34% | 1016.7 hPa | 0 mm | - | 612 W/m² | - |
| 1777889403 | 23.89° C | 35% | 1016.7 hPa | 0 mm | - | 608 W/m² | - |
| 1777889103 | 23.89° C | 35% | 1016.5 hPa | 0 mm | - | 579 W/m² | - |
| 1777888503 | 23.33° C | 35% | 1016.7 hPa | 0 mm | - | 556 W/m² | - |
| 1777887603 | 23.89° C | 35% | 1016.9 hPa | 0 mm | - | 584 W/m² | - |
| 1777887304 | 23.33° C | 36% | 1017 hPa | 0 mm | - | 611 W/m² | - |
| 1777887004 | 23.89° C | 34% | 1017.1 hPa | 0 mm | - | 615 W/m² | - |
| 1777886703 | 23.33° C | 36% | 1017 hPa | 0 mm | - | 553 W/m² | - |
| 1777886403 | 23.33° C | 36% | 1017 hPa | 0 mm | - | 621 W/m² | - |
| 1777886104 | 22.78° C | 36% | 1017.2 hPa | 0 mm | - | 603 W/m² | - |
| 1777885802 | 23.33° C | 35% | 1017.2 hPa | 0 mm | - | 579 W/m² | - |
| 1777885503 | 23.33° C | 36% | 1017.2 hPa | 0 mm | - | 574 W/m² | - |
| 1777885202 | 22.22° C | 38% | 1017.2 hPa | 0 mm | - | 564 W/m² | - |
| 1777884905 | 22.22° C | 36% | 1017.1 hPa | 0 mm | - | 503 W/m² | - |
| 1777884303 | 22.22° C | 36% | 1017.2 hPa | 0 mm | - | 568 W/m² | - |
| 1777884004 | 22.78° C | 35% | 1017.3 hPa | 0 mm | - | 572 W/m² | - |
| 1777883703 | 22.22° C | 36% | 1017.3 hPa | 0 mm | - | 550 W/m² | - |
| 1777883403 | 22.22° C | 36% | 1017.2 hPa | 0 mm | - | 524 W/m² | - |
| 1777883103 | 21.67° C | 37% | 1017.4 hPa | 0 mm | - | 497 W/m² | - |
| 1777882502 | 21.11° C | 37% | 1017.3 hPa | 0 mm | - | 305 W/m² | - |
| 1777882203 | 21.11° C | 37% | 1017.2 hPa | 0 mm | - | 407 W/m² | - |
| 1777881903 | 21.11° C | 38% | 1017.2 hPa | 0 mm | - | 394 W/m² | - |
| 1777881604 | 21.11° C | 37% | 1017.2 hPa | 0 mm | - | 395 W/m² | - |
* Rain latest hour (hover to see other rain measurements)
** Current wind speed in m/s (hover to see current wind gust speed)